C969 KMSP-KMIC

Flight info

Callsign C969
Flight time 0h 9m
Altitude 4000
Route KMSP/30L N0113F040 DCT KMIC/32
Aircraft C172/L-SFG/C

Departure

Time 2026-05-06 02:52
Airport Minneapolis–Saint Paul International Airport / Wold–Chamberlain Field (KMSP)

Arrival

Time 2026-05-06 03:02
Airport Crystal Airport (KMIC)
Time Latitude Longitude Altitude Speed Heading
2026-05-06 02:42 44.87795 -93.21700 827 ft 0 kts 358°
2026-05-06 02:46 44.87785 -93.21701 827 ft 9 kts 83°
2026-05-06 02:47 44.87805 -93.21654 827 ft 0 kts 50°
2026-05-06 02:47 44.87809 -93.21646 827 ft 7 kts 50°
2026-05-06 02:47 44.87845 -93.21564 827 ft 12 kts 88°
2026-05-06 02:48 44.87799 -93.21449 827 ft 22 kts 121°
2026-05-06 02:48 44.87699 -93.21215 827 ft 26 kts 121°
2026-05-06 02:48 44.87609 -93.21012 825 ft 23 kts 122°
2026-05-06 02:48 44.87547 -93.20874 824 ft 15 kts 122°
2026-05-06 02:49 44.87470 -93.20706 820 ft 22 kts 142°
2026-05-06 02:49 44.87358 -93.20577 819 ft 19 kts 122°
2026-05-06 02:49 44.87291 -93.20425 819 ft 16 kts 121°
2026-05-06 02:49 44.87243 -93.20303 822 ft 12 kts 104°
2026-05-06 02:50 44.87269 -93.20214 822 ft 9 kts 31°
2026-05-06 02:50 44.87283 -93.20202 822 ft 0 kts 32°
2026-05-06 02:51 44.87321 -93.20169 822 ft 16 kts 32°
2026-05-06 02:51 44.87407 -93.20251 821 ft 29 kts 302°
2026-05-06 02:51 44.87606 -93.20708 867 ft 69 kts 300°
2026-05-06 02:51 44.87868 -93.21341 1056 ft 79 kts 301°
2026-05-06 02:52 44.88157 -93.21999 1305 ft 80 kts 302°
2026-05-06 02:52 44.88464 -93.22703 1511 ft 87 kts 301°
2026-05-06 02:52 44.88769 -93.23405 1837 ft 80 kts 300°
2026-05-06 02:52 44.89067 -93.24088 2106 ft 80 kts 300°
2026-05-06 02:53 44.89348 -93.24760 2370 ft 79 kts 301°
2026-05-06 02:53 44.89654 -93.25413 2597 ft 82 kts 303°
2026-05-06 02:53 44.89942 -93.26096 2854 ft 81 kts 293°
2026-05-06 02:53 44.90250 -93.26778 3057 ft 88 kts 325°
2026-05-06 02:54 44.90838 -93.27195 3184 ft 100 kts 333°
2026-05-06 02:54 44.91472 -93.27638 3381 ft 102 kts 333°
2026-05-06 02:54 44.92103 -93.28087 3516 ft 103 kts 332°
2026-05-06 02:54 44.92735 -93.28540 3493 ft 104 kts 333°
2026-05-06 02:55 44.93393 -93.29000 3477 ft 106 kts 332°
2026-05-06 02:55 44.94044 -93.29479 3510 ft 107 kts 332°
2026-05-06 02:55 44.94721 -93.29944 3527 ft 108 kts 335°
2026-05-06 02:55 44.95400 -93.30367 3547 ft 109 kts 336°
2026-05-06 02:56 44.96106 -93.30784 3523 ft 110 kts 337°
2026-05-06 02:56 44.96821 -93.31191 3495 ft 112 kts 338°
2026-05-06 02:56 44.97554 -93.31586 3498 ft 112 kts 339°
2026-05-06 02:56 44.98283 -93.31962 3391 ft 113 kts 339°
2026-05-06 02:57 44.99016 -93.32344 3147 ft 110 kts 339°
2026-05-06 02:57 44.99719 -93.32719 2907 ft 106 kts 338°
2026-05-06 02:57 45.00396 -93.33084 2583 ft 102 kts 337°
2026-05-06 02:57 45.01038 -93.33443 2326 ft 96 kts 336°
2026-05-06 02:58 45.01627 -93.33795 2104 ft 91 kts 336°
2026-05-06 02:58 45.02249 -93.34160 1975 ft 98 kts 336°
2026-05-06 02:58 45.02857 -93.34518 1940 ft 91 kts 340°
2026-05-06 02:58 45.03474 -93.34508 1894 ft 91 kts 14°
2026-05-06 02:59 45.04106 -93.34278 1770 ft 95 kts 13°
2026-05-06 02:59 45.04724 -93.34053 1722 ft 88 kts 16°
2026-05-06 02:59 45.05186 -93.33557 1674 ft 83 kts 52°
2026-05-06 02:59 45.05528 -93.32909 1611 ft 81 kts 52°
2026-05-06 03:00 45.05886 -93.32324 1577 ft 72 kts 36°
2026-05-06 03:00 45.06346 -93.32161 1564 ft 74 kts 342°
2026-05-06 03:00 45.06794 -93.32540 1502 ft 75 kts 324°
2026-05-06 03:00 45.07171 -93.33029 1407 ft 70 kts 297°
2026-05-06 03:01 45.07207 -93.33663 1316 ft 69 kts 257°
2026-05-06 03:01 45.06991 -93.34289 1149 ft 74 kts 233°
2026-05-06 03:01 45.06687 -93.34855 985 ft 72 kts 232°
2026-05-06 03:01 45.06395 -93.35388 870 ft 60 kts 232°
2026-05-06 03:02 45.06249 -93.35656 872 ft 7 kts 200°
2026-05-06 03:02 45.06193 -93.35619 872 ft 12 kts 141°
2026-05-06 03:02 45.06126 -93.35564 871 ft 11 kts 206°
2026-05-06 03:02 45.06073 -93.35603 872 ft 11 kts 167°
2026-05-06 03:03 45.06029 -93.35524 872 ft 9 kts 91°
2026-05-06 03:03 45.06030 -93.35507 872 ft 0 kts 86°